Presure
183 178 170 173 170 169 171 176 177 172 175 176 171 173 176 165 165 178 198 149 153 185 163 217 209 197 210 127 120 127 127 207 207 194 148 226 171 176 170 162 132 178 114
180 175 174 180 171 172 171 171 164 163 160 162 164 138 144 170 168 195 167 185 175 184 161 194 207 213 148 126 127 155 202 193 199 211 194 144 191 132 124 132 166 133 137
179 184 168 157 162 169 171 172 168 155 124 173 174 179 180 181 202 151 206 194 143 180 222 168 217 211 115 197 197 208 172 100 216 203 207 175 179 144 171 168 169 91 149
177 176 174 171 171 173 173 171 178 176 176 176 187 178 193 93 142 186 152 200 163 224 205 189 207 180 177 194 98 209 93 217 138 132 175 182 175 97 161 162 186 164 164
168 178 179 177 178 179 180 167 174 172 161 167 163 184 194 123 181 185 183 199 187 178 207 209 134 137 134 205 204 198 192 161 183 116 88 112 180 140 202 174 187 149 198
153 174 178 173 172 122 164 150 166 165 171 170 182 175 186 181 181 166 188 209 80 184 180 212 208 181 148 171 131 146 159 159 85 95 113 95 146 160 155 158 151 146 147
171 173 117 137 159 171 165 177 161 126 163 168 169 170 179 169 180 190 182 207 153 204 134 106 186 136 213 96 116 179 165 164 82 85 167 83 112 126 168 177 179 192 200
174 167 172 172 147 168 103 165 170 170 173 168 177 132 156 135 192 176 156 190 190 182 92 168 110 163 187 213 130 146 173 83 90 153 165 172 162 173 186 162 161 164 151
181 178 171 167 166 139 169 148 109 94 150 158 150 157 143 180 190 154 163 189 186 100 150 92 83 179 159 189 215 156 172 146 156 114 151 162 159 156 161 154 152 159 180
175 189 175 168 113 111 96 188 157 150 137 169 101 174 176 182 182 117 96 104 99 164 154 98 187 153 169 217 148 157 154 166 151 155 159 163 150 157 178 204 183 180 193
174 202 198 193 183 166 175 173 171 165 180 178 96 99 190 182 190 183 86 124 210 88 153 170 167 186 172 160 178 142 143 158 150 136 152 209 161 190 177 149 162 139 176
150 173 183 198 209 199 172 172 177 174 189 156 177 160 184 179 189 184 153 171 201 191 190 170 172 96 142 142 158 153 157 156 155 179 145 169 196 185 149 175 200 164 165
188 191 184 155 190 192 182 174 199 138 185 180 173 176 167 164 175 189 181 173 128 198 169 173 164 169 158 147 139 181 176 195 142 195 158 200 156 183 189 153 165 156 151
169 159 184 177 182 195 195 201 199 187 187 184 183 179 159 174 187 110 177 174 150 172 163 187 170 167 172 147 153 170 156 182 185 149 151 195 155 201 195 174 194 202 156
198 188 166 202 153 144 157 198 143 182 188 184 195 113 181 200 188 179 171 166 154 160 171 158 179 179 149 174 174 133 142 143 161 182 187 194 189 174 194 165 154 188 166
194 124 189 161 171 194 195 152 178 144 165 171 180 145 193 172 164 168 161 167 162 164 175 162 196 145 153 179 192 160 177 161 154 164 172 196 167 186 170 195 174 195 189
195 181 184 181 174 172 190 161 177 182 160 161 173 167 180 179 163 165 177 188 183 175 176 173 186 189 166 158 172 168 149 174 199 166 200 224 171 193 198 208 174 189 196
196 193 176 188 161 187 176 173 172 193 187 180 177 182 173 185 179 170 181 172 199 178 186 162 181 189 188 168 194 173 183 185 185 203 207 200 192 205 167 168 193 204 206
201 178 192 179 181 201 174 164 192 172 179 174 177 171 163 180 172 173 197 185 196 179 182 184 192 182 197 138 158 186 199 200 191 184 190 146 182 200 197 144 175 195 216
197 183 185 192 174 185 177 171 165 187 169 184 189 172 186 177 173 166 180 190 193 173 178 195 182 185 173 184 175 195 178 188 196 189 188 206 203 195 203 189 205 206 236
178 183 183 203 201 185 178 178 189 186 185 176 173 189 175 190 167 180 193 188 176 179 183 184 184 196 186 193 168 205 196 183 187 191 178 174 187 202 204 193 205 226 241
202 179 174 187 208 186 186 187 181 198 185 173 160 177 189 182 186 182 175 190 194 196 189 197 189 161 165 173 188 220 192 183 204 178 204 187 194 204 183 213 220 222 202
190 190 189 188 181 176 187 190 197 176 180 180 177 174 175 174 203 203 184 186 180 189 200 194 209 182 192 183 196 200 197 192 188 205 215 213 203 193 211 221 237 276 217
194 193 194 202 188 179 183 173 189 198 175 175 190 160 179 197 192 179 192 184 180 181 178 211 168 171 180 194 166 167 196 209 208 191 195 202 203 218 227 238 197 229 252
172 193 191 182 184 186 183 187 188 206 183 176 180 185 188 188 194 194 178 193 186 193 188 186 172 186 186 183 183 201 189 208 175 199 204 209 218 219 193 233 268 250 239
186 201 190 193 188 193 203 188 194 188 186 184 185 191 193 189 196 188 186 186 181 167 206 193 194 184 204 193 194 205 205 218 212 192 203 225 253 270 248 195 202 223 246
Wind_Speed
57 56 55 55 55 53 51 50 48 50 49 49 52 52 51 46 42 46 50 44 44 46 44 33 39 45 35 55 52 57 54 33 33 36 48 28 56 38 41 40 59 45 51
57 55 56 56 57 55 55 52 53 52 51 51 52 46 43 50 47 52 46 47 44 45 45 45 31 35 53 57 57 37 35 39 36 27 28 47 27 52 53 57 59 60 45
57 58 56 57 56 57 57 55 57 51 46 56 57 58 57 56 51 47 45 46 49 47 36 46 33 34 46 41 39 32 36 47 33 30 29 35 36 52 51 55 54 46 70
60 58 58 59 59 59 58 59 57 57 59 58 57 59 54 36 46 44 48 46 50 38 44 35 40 41 40 38 36 29 47 32 52 49 35 33 45 62 61 62 43 68 70
64 62 61 60 61 59 60 55 60 59 55 56 50 57 51 40 53 53 47 46 48 45 41 40 62 36 48 37 31 36 26 38 27 43 47 55 43 62 37 54 51 67 49
62 65 62 62 61 44 60 56 62 61 61 59 58 56 55 56 54 50 52 46 26 46 46 37 39 37 51 34 37 47 47 39 40 52 56 60 65 61 68 69 74 74 76
69 68 50 54 61 62 62 61 63 46 60 61 60 60 59 59 57 51 56 49 50 43 60 31 39 66 43 42 38 32 43 47 45 51 52 53 56 71 62 54 54 57 55
70 71 70 67 62 63 48 65 65 64 64 63 62 52 56 52 54 56 55 54 49 44 27 31 30 46 49 50 47 59 36 49 52 62 55 52 63 54 55 70 78 78 85
75 73 73 72 70 61 66 63 50 46 58 63 57 60 57 62 56 54 54 56 52 43 40 35 38 35 40 36 47 49 43 66 59 64 69 66 70 72 76 79 80 73 82
72 76 77 74 57 57 50 66 67 59 59 66 50 68 65 62 64 55 42 55 47 49 52 41 40 48 40 50 63 50 57 50 66 64 64 65 76 76 62 72 70 73 70
77 67 67 74 74 71 72 69 68 69 65 68 43 51 62 63 63 64 25 60 57 31 47 43 43 46 42 48 43 65 73 60 72 80 77 71 80 61 64 87 86 83 78
53 63 60 63 63 66 62 65 69 63 66 55 71 57 65 67 65 63 44 41 58 57 49 45 46 46 55 68 57 63 64 67 77 66 85 71 65 75 86 70 78 95 82
79 78 77 57 66 69 69 63 65 44 73 72 68 64 58 52 59 57 56 38 51 62 50 52 45 50 59 70 79 65 60 74 86 72 80 82 87 85 78 95 94 97 90
60 58 75 70 75 68 65 64 64 71 75 75 72 68 50 66 71 40 64 64 52 48 51 62 49 53 52 76 71 68 76 66 70 87 91 89 92 91 77 82 80 96 95
76 73 60 71 57 60 57 64 58 72 75 76 73 49 71 69 74 70 59 52 61 54 57 64 63 67 77 55 59 75 87 90 88 69 71 89 85 87 93 103 93 78 108
81 65 73 62 65 66 66 65 67 65 64 65 71 63 74 64 59 66 57 68 59 69 64 61 84 76 77 63 84 72 76 89 80 93 93 93 82 96 93 92 98 108 101
92 80 75 74 67 68 70 66 70 75 63 66 68 65 76 78 60 67 75 81 79 76 77 66 80 85 85 64 64 81 82 78 104 84 95 107 91 83 97 120 92 102 123
97 90 82 80 65 79 73 72 70 77 79 78 75 82 74 80 80 74 83 74 94 77 88 69 84 90 86 62 97 79 92 93 80 98 113 105 84 117 104 108 101 129 128
93 70 91 79 78 86 73 67 80 74 80 79 80 76 73 85 80 79 91 89 94 82 89 90 98 80 105 71 85 96 106 112 95 107 85 83 86 111 121 89 101 113 145
101 89 92 99 72 80 76 76 72 88 78 88 84 82 92 88 83 75 89 91 96 79 83 103 87 83 92 89 77 108 78 112 89 81 95 131 129 120 133 114 138 136 147
80 90 89 96 98 90 81 82 93 94 94 81 81 95 89 97 79 94 100 98 82 89 87 89 89 105 94 109 96 114 101 95 92 105 93 94 111 135 138 116 141 150 147
115 84 76 97 99 94 95 95 91 99 95 83 77 90 100 98 101 96 83 102 105 105 80 110 103 79 77 78 100 107 107 83 135 84 138 112 123 142 102 151 147 140 98
102 105 103 99 92 87 97 103 109 87 90 91 89 94 93 89 111 110 93 99 75 99 113 99 117 80 107 82 119 121 127 115 106 141 145 148 138 122 150 150 147 122 114
110 105 103 114 104 92 99 89 107 110 85 87 106 80 96 110 108 86 110 87 86 90 68 118 79 77 81 127 96 105 127 145 146 114 120 143 143 158 158 155 109 135 134
77 118 115 94 98 107 105 107 108 97 99 93 98 108 112 112 106 120 84 102 82 114 98 93 77 105 112 100 98 145 113 144 92 135 136 145 161 131 109 140 126 134 124
103 123 119 125 114 121 121 109 114 113 111 108 109 117 115 115 124 102 105 108 79 77 133 120 129 102 140 129 128 144 144 153 153 119 147 166 155 129 122 100 107 127 137
Wind_Direction
241 243 248 249 251 253 254 256 256 259 265 267 268 271 274 274 274 283 290 273 277 288 282 287 289 291 286 281 289 289 293 288 291 288 294 305 297 296 300 305 299 295 305
241 242 247 248 252 254 256 256 258 259 264 268 271 266 272 278 280 287 280 286 283 286 283 289 278 283 283 283 287 288 287 283 299 292 284 295 296 294 299 299 298 306 322
242 243 244 248 252 254 257 258 260 263 261 266 269 273 276 280 284 273 285 287 276 287 287 285 283 283 290 287 288 291 283 297 296 294 294 286 288 295 292 296 298 310 307
239 240 241 246 249 252 255 258 259 262 265 267 272 274 278 280 274 283 272 290 283 285 291 280 287 290 294 289 279 290 283 298 297 301 286 275 285 298 297 299 319 303 298
238 239 241 242 246 249 251 254 258 261 262 266 268 274 278 281 280 281 280 287 285 284 287 283 277 273 286 289 288 282 285 285 284 281 302 291 294 297 313 294 307 295 327
239 239 240 240 243 252 250 255 259 263 264 267 270 274 277 278 280 277 285 292 263 285 276 277 281 292 281 289 283 296 291 289 294 292 289 294 295 297 298 298 303 305 307
236 238 247 246 244 245 249 251 259 253 266 268 271 274 275 277 278 283 282 290 281 289 275 267 297 282 289 273 277 276 281 285 304 300 294 306 302 296 291 295 296 317 327
235 240 241 241 244 246 254 252 256 260 262 267 269 265 271 269 277 279 278 284 288 288 265 289 290 298 291 300 292 289 277 300 298 290 295 295 290 292 301 292 295 292 302
234 237 241 244 244 248 248 252 256 258 264 265 268 270 272 275 278 279 282 281 286 300 282 276 283 293 290 284 292 285 282 289 288 295 291 289 291 293 289 294 297 296 313
243 235 238 243 249 252 257 250 257 264 261 266 260 269 272 275 275 278 274 278 295 288 290 282 295 297 295 293 282 281 281 279 288 288 289 283 291 295 285 311 304 317 317
239 236 241 243 245 254 249 252 256 261 258 261 272 270 268 274 274 281 275 281 275 282 284 286 277 303 271 276 281 284 284 278 282 295 286 315 283 300 286 297 290 300 284
257 239 240 243 242 246 259 255 255 258 255 275 266 272 270 276 277 276 277 279 279 283 282 288 287 294 284 289 277 275 277 281 286 298 289 282 310 307 294 306 312 295 306
233 235 238 253 242 243 247 255 251 251 255 263 272 271 276 278 279 273 283 288 278 285 278 284 280 286 276 277 288 294 293 310 289 309 287 313 289 298 302 292 303 294 297
247 250 241 251 250 244 248 247 247 252 255 259 263 268 271 278 275 273 285 285 262 282 273 286 286 278 288 280 275 292 291 304 303 292 289 311 292 319 314 282 318 327 303
238 243 248 240 253 253 261 242 253 251 255 260 260 267 270 266 276 273 281 283 268 271 278 271 294 295 278 289 287 293 287 288 298 300 302 310 309 294 314 292 300 294 288
239 246 242 253 257 246 247 249 262 259 267 275 270 263 269 279 276 275 277 282 272 276 291 271 293 274 289 296 301 280 297 297 299 287 299 310 302 306 299 316 298 314 314
241 246 245 251 255 259 249 262 261 262 267 264 277 274 275 274 276 278 285 279 284 284 290 288 299 299 296 294 288 297 297 299 306 281 306 307 279 317 322 320 287 312 318
243 246 246 248 256 251 259 264 268 255 261 269 273 270 278 272 280 281 283 281 280 289 291 279 294 298 299 284 297 297 299 305 302 294 316 316 310 320 281 290 312 316 315
242 250 246 252 253 246 260 262 260 267 266 272 271 275 274 276 278 282 277 284 279 289 281 290 292 291 296 292 274 302 299 306 302 305 295 304 292 306 314 303 287 309 314
242 255 256 252 255 253 261 261 264 260 268 266 265 274 270 275 278 278 281 278 280 284 289 289 291 292 285 298 293 303 294 294 297 302 303 315 315 307 313 302 313 311 314
250 255 257 248 249 261 261 262 259 261 264 268 271 269 275 270 275 279 275 279 283 285 290 289 292 294 292 297 288 300 306 287 307 309 301 290 310 313 313 306 311 313 312
240 254 254 258 247 261 261 262 265 258 267 268 266 273 270 273 277 278 279 282 284 285 279 290 290 273 290 293 307 299 311 308 308 296 310 311 312 314 300 312 311 309 305
250 250 253 255 257 259 261 262 261 263 267 268 268 270 272 275 271 272 280 282 278 291 292 290 291 293 294 300 306 305 306 309 308 309 310 310 310 307 311 312 311 307 310
249 253 253 252 256 260 261 260 262 262 266 268 271 269 277 277 282 281 285 286 277 281 284 291 273 278 299 303 291 297 305 304 305 308 306 311 312 312 309 311 306 313 309
254 250 254 260 260 261 264 264 266 261 269 270 274 277 277 277 278 284 278 290 289 291 291 293 286 300 303 304 302 300 306 303 297 308 310 309 310 308 307 310 305 309 311
248 247 253 254 256 259 257 264 261 267 271 271 273 272 274 276 280 276 283 286 292 289 287 295 294 299 295 300 300 300 302 300 305 304 305 309 308 305 306 307 309 311 310